Погода в Калтане

Россия / Кемеровская область (Кузбасс)     53°31′15″N   87°16′37″E
темп.,
°C
ветер,
м/с
пор.,
м/с
влажн.,
%
обл.,
%
осадки,
мм/ч
давл.,
гПа
погр.,
м
15 апреля, чт
чт1501:00+1юз41392100 0.3 1027631
04:00+1юз2799100 0.3 1027398
07:00+1ю2499100 0.8 1028200
10:00+2ююв1399100 0.1 1028156
13:00+2юв12100100 0.1 1028130
16:00+2юв12100100 0.1 1027144
19:00+2ююв11100100 0.1 102621
22:00+2ююв12100100 0.0 102549
16 апреля, пт
пт1601:00+1ю14100100 0.0 1025114
04:00+2ю2698100 0.0 1023175
07:00+2ю399699 0.0 1023264
10:00+5ююз4108997 0.1 1022371
13:00+9юз497975 0.1 1020751
16:00+11юз4107518 0.0 1018878
19:00+9юз412823 0.0 1017561
22:00+6ююз3118962 0.0 1016247
17 апреля, сб
сб1701:00+4з2393100 0.1 101667
04:00+2с3990100 1.1 1019505
07:00+1ссв3794100 2.1 1019458
10:00+2с3474100 0.0 1019583
13:00+5с3357100 0.0 1017871
16:00+6ссз225262 0.0 1016920
19:00+5зсз2361100 0.0 1015236
22:00+3зюз127895 0.0 101677
18 апреля, вс
вс1801:00+2з3678100 0.0 1017612
04:00+1юз289289 0.1 1018320
07:000юз2690100 0.1 1020287
10:00+3зюз2459100 0.0 1020875
13:00+5зюз3452100 0.0 10191494
16:00+6зюз3550100 0.0 10171667
19:00+5ююз2567100 0.0 1016400
22:00+4ююв3988100 0.0 1014348
19 апреля, пн
пн1901:00+2юв2291100 0.0 101022
04:00+3юв2387100 0.0 100562
07:00+5ю31380100 0.1 1001341
10:00+11ююз71862100 0.3 9991811
13:00+1з31197100 2.3 1004609
16:000зюз4991100 5.4 10091005
19:000зюз4876100 6.8 10121234
22:00−2з3779100 0.2 1015788